User: anonymous   Login
Location: Muenchen
(48.1800°N, 11.5800°E)
Time: 05:21:53
(UTC+02:00)
Language:

ISS - Orbit

View from above orbital plane
View from above orbital plane
View from above satellite
View from above satellite

Ground track
Ground track

The orbit data is extracted from the following two-line orbital elements,

1 25544U 98067A   15184.86992696  .00006199  00000-0  96008-4 0  9996
2 25544 051.6454 000.7130 0003332 120.7849 028.4429 15.55493803950635
Epoch (UTC): 03 July 2015 20:52:41
Eccentricity: 0.0003332
inclination: 51.6454°
perigee height: 398 km
apogee height: 403 km
right ascension of ascending node: 0.7130°
argument of perigee: 120.7849°
revolutions per day: 15.55493803
mean anomaly at epoch: 28.4429°
orbit number at epoch: 95063

The dashed part of the orbit path shows where the satellite is in the earth's shadow,  

DLR